This is the latest recevied weather packets stored in our database for station/object YO8SDE-8. If no packets are shown the sender has not sent any weather packets the latest 10 day(s).
| Time | Temp. | Humidity | Pressure | Rain* | Wind** | Luminosity | Snow |
|---|---|---|---|---|---|---|---|
| 1777595466 | 0° C | 67% | 1015.1 hPa | 0 mm | - | - | - |
| 1777595166 | 0° C | 67% | 1015 hPa | 0 mm | - | - | - |
| 1777594866 | 0° C | 66% | 1015 hPa | 0 mm | - | - | - |
| 1777594566 | 0.56° C | 67% | 1015 hPa | 0 mm | - | - | - |
| 1777594266 | 0.56° C | 67% | 1014.9 hPa | 0 mm | - | - | - |
| 1777593966 | 0.56° C | 67% | 1015 hPa | 0 mm | - | - | - |
| 1777593666 | 0.56° C | 66% | 1015.1 hPa | 0 mm | - | - | - |
| 1777593366 | 0.56° C | 66% | 1015.1 hPa | 0 mm | - | - | - |
| 1777593066 | 0.56° C | 68% | 1015.1 hPa | 0 mm | - | - | - |
| 1777592766 | 0.56° C | 67% | 1015.1 hPa | 0 mm | - | - | - |
| 1777592466 | 0.56° C | 65% | 1015.1 hPa | 0 mm | - | - | - |
| 1777592166 | 0.56° C | 66% | 1015.3 hPa | 0 mm | - | - | - |
| 1777591866 | 0.56° C | 65% | 1015.3 hPa | 0 mm | - | - | - |
| 1777591566 | 0.56° C | 64% | 1015.2 hPa | 0 mm | - | - | - |
| 1777591266 | 0.56° C | 63% | 1015.2 hPa | 0 mm | - | - | - |
| 1777590966 | 0.56° C | 63% | 1015.3 hPa | 0 mm | - | - | - |
| 1777590666 | 1.11° C | 63% | 1015.4 hPa | 0 mm | - | - | - |
| 1777590366 | 1.11° C | 62% | 1015.5 hPa | 0 mm | - | - | - |
| 1777590066 | 1.11° C | 61% | 1015.5 hPa | 0 mm | - | - | - |
| 1777589766 | 1.11° C | 61% | 1015.6 hPa | 0 mm | - | - | - |
| 1777589466 | 1.67° C | 60% | 1015.5 hPa | 0 mm | - | - | - |
| 1777589166 | 2.22° C | 60% | 1015.7 hPa | 0 mm | - | - | - |
| 1777588866 | 2.78° C | 59% | 1015.7 hPa | 0 mm | - | - | - |
| 1777588566 | 2.78° C | 58% | 1015.7 hPa | 0 mm | - | - | - |
| 1777588266 | 3.33° C | 59% | 1015.8 hPa | 0 mm | - | - | - |
* Rain latest hour (hover to see other rain measurements)
** Current wind speed in m/s (hover to see current wind gust speed)